Starlink 37013

operational
NORAD ID: 68162 Int'l Des: 2026-049 Owner: SPXS Country: US Constellation: starlink
LEOCIRCULARRETROGRADE

关于 Starlink 37013

正在加载描述...

实时位置

正在加载3D地球...

即将过境

高度历史

Altitude vs Time

uPlot chart will show altitude changes over time

两行轨道根数

1 68162C 26049W 26072.93520833 .00505320 00000+0 58481-3 0 729
2 68162 97.2817 91.9369 0010232 250.8627 238.6679 16.08268822 19
Epoch: Mar 13, 2026 • Age: 72 hours

当前状态

高度 251.4 km
速度 7.76 km/s
星下点 34.01°N, 109.13°E
发射日期 Mar 13, 2026
运行时间 2 days
类型 internet

技术详情

分类 Payload
质量 575.00 kg
干质量 530.00 kg
总质量 575.00 kg
长度 0.30 m
直径 4.10 m
跨度 29.00 m
形状 Box + pan
制造商 SPXS
平台类型 Starlink V2MO
阶段状态 In Orbit
所有者/国家 SPXS/US

大型星座

Loading constellations...